Regional Weather Roundup
Issued by NWS

Home | Current Version | Previous Version | Graphics & Text | Print | Product List | Glossary On
Versions: 1 2 3 4 5 6 7 8 9 10 11 12 13 14 15 16 17 18 19 20 21 22 23 24 25 26 27 28 29 30 31 32 33 34 35 36 37 38 39 40 41 42 43 44 45 46 47 48 49 50
000
ASUS43 KDTX 202110
RWRMI
MICHIGAN HOURLY REGIONAL WEATHER ROUNDUP
NATIONAL WEATHER SERVICE DETROIT/PONTIAC MI
500 PM EDT WED SEP 20 2017

NOTE: "FAIR" INDICATES FEW OR NO CLOUDS BELOW 12,000 FEET WITH NO
SIGNIFICANT WEATHER AND/OR OBSTRUCTION TO VISIBILITY.

MIZ047>049-052>055-059>063-066>070-074>076-081>083-202200-
SOUTHEAST LOWER MICHIGAN

CITY           SKY/WX    TMP DP  RH WIND       PRES   REMARKS
ADRIAN         SUNNY     82  61  48 SW7       29.98F
ALMA           SUNNY     84  56  39 SW6       29.95F
ANN ARBOR      SUNNY     81  64  56 VRB5      29.97F
BAD AXE        MOSUNNY   78  67  68 SE6       29.97F
CARO           MOSUNNY   78  64  60 S6        29.97S
DETROIT CITY   MOSUNNY   79  64  60 S6        29.98S
DETROIT        MOSUNNY   81  68  64 S8        29.98F
FLINT          MOSUNNY   82  62  50 S5        29.97F
GROSSE ILE     SUNNY     77  67  72 SE7       29.98S
HILLSDALE      CLOUDY    81  64  57 W3        29.99S
HOWELL         MOSUNNY   82  62  50 SW7       29.97F

CITY           SKY/WX    TMP DP  RH WIND       PRES   REMARKS
JACKSON        MOSUNNY   84  61  45 SW10      29.97F
LAMBERTVILLE   MOSUNNY   83  64  53 SW3       29.98S
LANSING        SUNNY     86  59  39 SW6       29.96F
LAPEER         FAIR      81  62  53 S6        29.98F
MASON          SUNNY     85  60  42 SW5       29.96F
MONROE         MOSUNNY   79  68  68 SE5       29.98S
MT. CLEMENS    MOSUNNY   80  69  69 SE12      29.98S
PONTIAC        PTSUNNY   80  64  58 SE8       29.97F
PORT HOPE        N/A     74  67  78 SE10      29.96S
PORT HURON     MOSUNNY   82  66  57 S6        29.98S
TRI CITIES     MOSUNNY   81  66  60 S6        29.96F
MIDLAND        FAIR      81  65  58 CALM      29.95F
TROY           SUNNY     82  62  50 S5        30.00S
SAGINAW HB     PTSUNNY   79  63  57 S7        29.96S
$$
MIZ043>046-050>051-056>058-064>065-071>073-077>080-202200-
SOUTHWEST LOWER MICHIGAN

CITY           SKY/WX    TMP DP  RH WIND       PRES   REMARKS
BATTLE CREEK   SUNNY     86  66  51 SW9       29.96F
BENTON HARBOR  SUNNY     87  69  54 SE10      29.91F HX  91
BIG RAPIDS     SUNNY     82  60  46 SE7       29.92F
COLDWATER      SUNNY     84  64  52 SW3       29.97F
FREMONT        FAIR      85  63  47 S7G16     29.89F
HOLLAND        SUNNY     88  66  48 SE13      29.91F HX  90
GRAND RAPIDS   MOSUNNY   87  66  49 S12G21    29.92F
IONIA          FAIR      87  59  38 S8        29.92F
KALAMAZOO      SUNNY     86  65  49 S8        29.95F
LUDINGTON      SUNNY     84  65  52 S9G16     29.87S
MARSHALL       SUNNY     84  65  52 S6        29.95F
MOUNT PLEASANT SUNNY     85  60  43 S6        29.93F
MUSKEGON       MOSUNNY   89  65  44 S13       29.88F HX  91
SOUTH HAVEN    SUNNY     87  67  51 S9        29.91F HX  90
$$
MIZ016>042-202200-
NORTHERN LOWER MICHIGAN

CITY           SKY/WX    TMP DP  RH WIND       PRES   REMARKS
ALPENA         PTSUNNY   76  68  76 E12       29.96S
BEAVER ISLAND  CLOUDY    78  65  64 SE7       29.88F
BELLAIRE       CLOUDY    79  62  56 SE9       29.90F
CADILLAC       SUNNY     81  60  48 SE14      29.93F
CHARLEVOIX     CLOUDY    82  65  57 S12       29.92S
FRANKFORT      MOSUNNY   85  63  47 S15       29.86F
GAYLORD        MOSUNNY   75  63  66 S13       29.95F
GRAYLING       CLOUDY    76  62  62 S7        29.96F
HARBOR SPRINGS CLOUDY    81  63  54 S6        29.89F
HOUGHTON LAKE  SUNNY     77  63  61 S12       29.96F
MANISTEE       SUNNY     83  67  58 VRB5      29.86F
OSCODA         MOSUNNY   78  64  60 S10G16    29.97R
PELLSTON       MOSUNNY   81  64  56 SE14G20   29.90F
ROGERS CITY    MOSUNNY   76  66  70 SE10      29.96R
TRAVERSE CITY  PTSUNNY   83  62  49 SE8       29.87F
$$
MIZ007>008-015-202200-
EASTERN UPPER MICHIGAN

CITY           SKY/WX    TMP DP  RH WIND       PRES   REMARKS
KINROSS        MOSUNNY   74  66  76 SE14      29.92F
MACKINAC ISLAN MOSUNNY   72  65  79 E8        29.90F
NEWBERRY       CLOUDY    75  67  75 SE17G24   29.88S
S. S. MARIE    CLOUDY    73  65  75 SE12G20   29.92F
MUNISING         N/A     76  64  66 S14G33    29.80S
$$
MIZ004>006-011>014-085-202200-
CENTRAL UPPER MICHIGAN

CITY           SKY/WX    TMP DP  RH WIND       PRES   REMARKS
MANISTIQUE     CLOUDY    72  65  81 SE10      29.86F
ESCANABA       MOSUNNY   72  66  81 S9        29.85S
MENOMINEE      SUNNY     77  66  68 S10G20    29.82S
SAWYER-GWINN   MOSUNNY   73  63  68 S21       29.84S
$$
MIZ001>003-009>011-084-202200-
WESTERN UPPER MICHIGAN

CITY           SKY/WX    TMP DP  RH WIND       PRES   REMARKS
IRON MOUNTAIN  CLOUDY    73  64  73 SE10      29.83R
HOUGHTON       CLOUDY    70  63  78 SW9       29.79R
COPPER HARBOR    N/A     69  61  75 SW7       29.78R
IRONWOOD       MOSUNNY   73  66  78 S8        29.79R
$$

ABBREVIATIONS USED IN REMARKS
   TC - TEMPERATURE IN CELSIUS
  WCI - WIND CHILL INDEX
   HX - HEAT INDEX
  VSB - VISIBILITY





USA.gov is the U.S. government's official web portal to all federal, state and local government web resources and services.